Regional Weather Roundup
Issued by NWS

Home | Current Version | Previous Version | Text Only | Print | Product List | Glossary Off
Versions: 1 2 3 4 5 6 7 8 9 10 11 12 13 14 15 16 17 18 19 20 21 22 23 24 25 26 27 28 29 30 31 32 33 34 35 36 37 38 39 40 41 42 43 44 45 46 47 48 49 50

106
ASUS43 KDMX 050106
RWRIA

WEATHER ROUNDUP FOR IOWA
NATIONAL WEATHER SERVICE DES MOINES IA
700 PM CST SUN DEC 04 2016

NOTE: "FAIR" INDICATES FEW OR NO CLOUDS BELOW 12,000 FEET WITH NO
SIGNIFICANT WEATHER AND/OR OBSTRUCTIONS TO VISIBILITY.

* - THESE STATIONS ARE NOT NWS STATIONS...THUS NOT UNDER NWS
QUALITY CONTROL.  THEY ALSO DO NOT REPORT WEATHER SUCH
AS PRECIPITATION OR FOG.

IAZ001>003-012>014-020>022-031>034-043>046-050200-
   NORTHWEST IOWA

CITY           SKY/WX    TMP DP  RH WIND       PRES   REMARKS
CARROLL *      CLEAR     34  34 100 SW13G18   29.87S WCI  25
CHEROKEE *     CLEAR     33  33 100 S5        29.84F WCI  28
DENISON *      CLEAR     34  32  93 S6        29.86S WCI  29
LE MARS *      CLEAR     34  28  80 CALM      29.84F
ORANGE CITY *  CLEAR     34  30  86 CALM      29.82F
SHELDON *      CLEAR     34  32  93 S6        29.80F WCI  29
SIOUX CITY     CLEAR     37  30  75 S8        29.85S WCI  31
SPENCER        CLEAR     32  29  88 SW10      29.81F WCI  24
STORM LAKE *   CLEAR     34  32  93 SW7       29.84F WCI  28
$$

IAZ055>058-069>071-079>083-090>094-050200-
   SOUTHWEST IOWA

CITY           SKY/WX    TMP DP  RH WIND       PRES   REMARKS
ATLANTIC *     CLEAR     32  30  93 SW7       29.91S WCI  26
AUDUBON *      CLEAR     34  30  86 SW7       29.90S WCI  28
CLARINDA *       N/A     34  34 100 S5        29.96S WCI  30
COUNCIL BLFS * CLEAR     36  34  93 SW13      29.91S WCI  27
CRESTON *      CLEAR     32  32 100 S9        29.94S FOG     WCI  24
HARLAN  *      CLEAR     34  32  93 S9        29.94R WCI  26
LAMONI         CLOUDY    36  33  89 SW12      29.95S WCI  28
RED OAK *      CLEAR     34  32  93 SW6       29.94S WCI  29
SHENANDOAH *   PTCLDY    34  32  93 S5        29.95S WCI  30
$$

IAZ047>049-059>061-072>074-084-050200-
   CENTRAL IOWA

CITY           SKY/WX    TMP DP  RH WIND       PRES   REMARKS
AMES           CLEAR     31  31 100 SE5       29.89S WCI  26
ANKENY *       CLEAR     34 N/A N/A SW7       29.92S WCI  28
BOONE *        CLEAR     32  32 100 SW9       29.88R FOG     WCI  24
CHARITON *       N/A     36  34  93 SW9       29.94S WCI  29
DES MOINES     CLEAR     34  32  92 S8        29.91S WCI  27
GRINNELL*      CLOUDY    33  32  94 SW9       29.91R FOG     WCI  26
KNOXVILLE *    CLOUDY    36  32  87 SW10G18   29.92R WCI  28
MARSHALLTOWN   CLOUDY    33  32  96 W9        29.90R FOG     WCI  25
NEWTON *       CLOUDY    34  32  93 SW10      29.91R FOG     WCI  26
PELLA *        CLOUDY    36  33  88 SW9       29.94R WCI  29
PERRY *          N/A     32  32 100 S5        29.89S FOG     WCI  27
$$

IAZ004>006-015-016-023>025-035-036-050200-
   NORTH CENTRAL IOWA

CITY           SKY/WX    TMP DP  RH WIND       PRES   REMARKS
ALGONA *       CLEAR     34  34 100 SW12      29.83S FOG     WCI  25
CLARION *      PTCLDY    32  32 100 S10       29.85F FOG     WCI  24
ESTHERVILLE    CLEAR     34  32  92 W9        29.80F WCI  27
FORT DODGE *   CLEAR     32  28  86 S6        29.87F WCI  26
MASON CITY     CLOUDY    34  32  92 SW16      29.84F WCI  24
FOREST CITY *    N/A     32  32 100 SW8       29.82S WCI  25
WEBSTER CITY * CLEAR     32  32 100 SW10      29.85F FOG     WCI  24
IOWA FALLS *   CLOUDY    33  32  95 SW10      29.89S WCI  25
$$

IAZ007>011-017>019-026>030-037>042-050>054-066-050200-
   NORTHEAST IOWA

CITY           SKY/WX    TMP DP  RH WIND       PRES   REMARKS
CEDAR RAPIDS   CLOUDY    33  32  96 SW8       29.90R WCI  26
CHARLES CITY * CLOUDY    34  32  93 SW10      29.85F WCI  26
CLINTON *      CLOUDY    32  31  96 SW7       29.92R FOG     WCI  26
DECORAH *      CLOUDY    32  30  93 VRB6      29.83S WCI  26
DUBUQUE        CLOUDY    31  31 100 SW9       29.87S FOG     WCI  23
MONTICELLO *   CLOUDY    34  32  93 W7        29.89S WCI  28
OELWEIN *      CLOUDY    32  32 100 W9        29.87S WCI  24
WATERLOO       CLOUDY    33  30  88 SW9       29.88S WCI  25
$$

IAZ064-065-067-068-078-050200-
   EAST CENTRAL IOWA

CITY           SKY/WX    TMP DP  RH WIND       PRES   REMARKS
DAVENPORT      CLOUDY    33  31  92 SW10      29.92R WCI  25
IOWA CITY      CLOUDY    34  32  92 W7        29.93S WCI  28
MUSCATINE *    CLOUDY    34  32  93 SW7       29.95R WCI  28
QUAD CITIES    CLOUDY    34  31  88 SW7       29.92R FOG     WCI  28
$$

IAZ062-063-075>077-085>089-095>099-050200-
   SOUTHEAST IOWA

CITY           SKY/WX    TMP DP  RH WIND       PRES   REMARKS
BURLINGTON     CLOUDY    33  33 100 SW7       29.95R FOG     WCI  27
FAIRFIELD *    CLOUDY    36  32  87 SW9       29.94R WCI  29
FORT MADISON * CLOUDY    34  34 100 SW6       29.97R WCI  29
KEOKUK *       CLOUDY    34  34 100 W8        29.97R WCI  27
OSKALOOSA *    CLOUDY    34  32  94 SW10      29.94R WCI  26
CENTERVILLE *  CLOUDY    36  34  93 SW10      29.96S WCI  28
OTTUMWA        CLOUDY    36  31  82 SW10      29.93S WCI  28
WASHINGTON *   CLOUDY    34  32  93 SW9       29.94S WCI  26
$$

ABBREVIATIONS USED IN REMARKS
   TC - TEMPERATURES IN CELSIUS
  WCI - WIND CHILL INDEX
   HX - HEAT INDEX
  VSB - VISIBILITY
$$





USA.gov is the U.S. government's official web portal to all federal, state and local government web resources and services.